Weather History for Safford, AZ

Change the Weather History Date:

Thursday, December 6, 2012

  Actual Average Record
Temperature  
Mean Temperature 54 °F -  
Max Temperature 71 °F 61 °F 75 °F (1980)
Min Temperature 37 °F 30 °F 15 °F (1953)
Degree Days  
Heating Degree Days 11    
Growing Degree Days 4 (Base 50)    
Moisture  
Dew Point 23 °F    
Average Humidity 32    
Maximum Humidity 48    
Minimum Humidity 18    
Precipitation  
Precipitation 0.00 in - - ()
Sea Level Pressure  
Sea Level Pressure 29.88 in    
Wind  
Wind Speed 3 mph (SW)    
Max Wind Speed 8 mph    
Max Gust Speed -    
Visibility 10 miles    
Events      
Averages and records for this station are not official NWS values.
T = Trace of Precipitation, MM = Missing Value Source: NWS Daily Summary

Daily Weather History Graph

Daily Weather History Graph

Search for Another Location

Airport:

Trip Planner

Search our weather history database for the weather conditions in past years. The results will help you decide how hot, cold, wet, or windy it might be!

Date:

Astronomy

Dec. 06, 2012 Rise Set
Actual Time 7:07 AM MST 5:11 PM MST
Civil Twilight 6:40 AM MST 5:39 PM MST
Nautical Twilight 6:09 AM MST 6:09 PM MST
Astronomical Twilight 5:39 AM MST 6:39 PM MST
Moon No Moon Rise 12:20 PM MST (12/6)
Length of Visible Light 10h 58m
Length of Day
10h 04m
Waning Gibbous, 48% of the Moon is Illuminated
Dec 6
Waning Gibbous
Dec 13
New
Dec 19
First Quarter
Dec 28
Full
Jan 4
Last Quarter

Hourly Weather History & Observations

Time (MST) Temp. Windchill Dew Point Humidity Pressure Visibility Wind Dir Wind Speed Gust Speed Precip Events Conditions
12:51 AM 43.0 °F 41.3 °F 19.9 °F 40% 29.96 in 10.0 mi SE 3.5 mph - N/A   Clear
1:51 AM 45.0 °F - 21.9 °F 40% 29.94 in 10.0 mi Calm Calm - N/A   Clear
2:51 AM 42.1 °F - 19.9 °F 41% 29.95 in 10.0 mi Calm Calm - N/A   Clear
3:51 AM 41.0 °F - 21.0 °F 45% 29.94 in 10.0 mi Calm Calm - N/A   Clear
4:51 AM 39.0 °F 35.7 °F 19.0 °F 45% 29.93 in 10.0 mi SE 4.6 mph - N/A   Clear
5:51 AM 37.0 °F 33.3 °F 19.0 °F 48% 29.93 in 10.0 mi SE 4.6 mph - N/A   Clear
6:51 AM 39.0 °F 36.8 °F 19.9 °F 46% 29.95 in 10.0 mi SE 3.5 mph - N/A   Clear
7:51 AM 42.1 °F - 21.9 °F 45% 29.96 in 10.0 mi Calm Calm - N/A   Clear
8:51 AM 48.9 °F - 23.0 °F 36% 29.95 in 10.0 mi Calm Calm - N/A   Clear
9:51 AM 55.9 °F - 24.1 °F 29% 29.94 in 10.0 mi South 4.6 mph - N/A   Clear
10:51 AM 60.1 °F - 24.1 °F 25% 29.94 in 10.0 mi WNW 8.1 mph - N/A   Clear
11:51 AM 64.0 °F - 24.1 °F 22% 29.91 in 10.0 mi NW 5.8 mph - N/A   Clear
12:51 PM 66.0 °F - 24.1 °F 20% 29.86 in 10.0 mi Variable 5.8 mph - N/A   Clear
1:51 PM 68.0 °F - 25.0 °F 20% 29.82 in 10.0 mi Calm Calm - N/A   Clear
2:51 PM 70.0 °F - 25.0 °F 18% 29.80 in 10.0 mi West 6.9 mph - N/A   Clear
3:51 PM 71.1 °F - 25.0 °F 18% 29.79 in 10.0 mi WNW 6.9 mph - N/A   Clear
4:51 PM 69.1 °F - 25.0 °F 19% 29.79 in 10.0 mi WNW 4.6 mph - N/A   Clear
5:51 PM 60.1 °F - 24.1 °F 25% 29.82 in 10.0 mi NW 8.1 mph - N/A   Clear
6:51 PM 57.0 °F - 24.1 °F 28% 29.83 in 10.0 mi NNW 5.8 mph - N/A   Clear
7:51 PM 54.0 °F - 23.0 °F 30% 29.85 in 10.0 mi North 4.6 mph - N/A   Clear
8:51 PM 53.1 °F - 23.0 °F 31% 29.84 in 10.0 mi Calm Calm - N/A   Clear
9:51 PM 48.9 °F - 21.9 °F 35% 29.85 in 10.0 mi South 6.9 mph - N/A   Clear
10:51 PM 48.0 °F - 21.9 °F 36% 29.85 in 10.0 mi East 5.8 mph - N/A   Clear
11:51 PM 51.1 °F - 23.0 °F 33% 29.83 in 10.0 mi SE 4.6 mph - N/A   Clear